Tracking 19720 objects as of 26-Jun-2019
HD Live streaming from Space Station
objects crossing your sky now

THOR BURNER 2 DEB

Track THOR BURNER 2 DEB now!
10-day predictions


NORAD ID: 25122
Int'l Code: 1967-065E
Perigee: 3,854.8 km
Apogee: 3,930.2 km
Inclination: 90.1 °
Period: 172.5 minutes
Semi major axis: 10263 km
RCS: 0.0646 m2 (small)
Launch date: June 29, 1967
Source: United States (US)
Launch site: AIR FORCE WESTERN TEST RANGE (AFWTR)

Note: This is SATELLITE DEBRIS
aabbcc
Your satellite tracking list
Your tracking list is empty




NASA's NSSDC Master Catalog

Two Line Element Set (TLE):
1 25122U 67065E   13349.70428030 -.00000125 +00000-0 -80581-1 0  9993
2 25122 090.1227 280.6447 0036730 207.2106 152.6804 08.34951246553295
Source of the keplerian elements: AFSPC